STARLINK-11535, 62595

Orbit data source: Space-Track

STARLINK-11535, 62595 is a payload satellite owned by SpaceX/Seattle (US) in LEO that was launched on Mon, 13 Jan 2025 UTC via an FALCON 9 launch vehicle from the Air Force Eastern Test Range (AFETR). Payload-class satellites include a variety of spacecraft equipped with specific instruments for various scientific and technological missions. These include communications satellites like Starlink; space stations such as the ISS; scientific satellites like the Hubble; Earth observation satellites from companies like Planet Labs, Umbra, and HawkEye 360; GPS; miniature CubeSats for education and research; and military/defense satellites.

Loading next visibility...
Identifier
62595, 2025-008J
Orbit
LEO
Country
Flag of USUS
Related business
Manufacturer
SpaceX/Seattle
Mission
Operational Commercial Communications
Bus & Motor
STARLINK V2MD, Unknown motor
Mass
960 kg wet, ~910 kg dry
Launch date (UTC)
2025-01-13 (1 year ago)
Launch vehicle
FALCON 9
Launch site
Air Force Eastern Test Range (AFETR)
Object type
Payload
Rocket body
Debris
Shape & HBR
Box + 2 Pan, 18.1 m
Radar Cross Section
36.964 m², Large (>1 m²)

Expand to show TLE details & history
Last TLE update: 2 days ago

TLE from 2 days ago
0 STARLINK-11535
1 62595U 25008J   26162.06196262  .00159174  00000-0  12159-2 0  9998
2 62595  43.0023 282.9581 0004108 277.1441  82.8959 15.70920059 81823
Epoch: 2026-06-11T01:29Z
TLE epoch observation values (Epoch: 2026-06-11T01:29:13.570Z)
Latitude
-0.00005°
Longitude
1.24034°
Altitude
355.697 km
Speed
7.698 km/s
True Right ascension
18h 51m 49s
True Declination
0° 00' 00"
Sunlit
Object was in full shadow at epoch
Visualization orbit readout
Latitude
Unknown
Longitude
Unknown
Altitude
Unknown
Speed
Unknown
Apparent Right ascension
Unknown
Apparent Declination
Unknown
Sunlit
N/A
Visualization observer readout
Local Sidereal Time
14:08:38
Azimuth
Unknown
Elevation
Unknown
Doppler factor
Unknown
Orbital elements
Apogee altitude
361.015 km
Perigee altitude
355.48 km
Semi-major axis
6,736.385 km
Eccentricity
0.00041
Inclination
43.0023°
RAAN
282.9581°
Arg. of periapsis
277.1441°
True anomaly
82.94262°
Mean anomaly
82.8959°
Eccentric anomaly
82.91926°
Mean motion
3.92557 °/min
Orbital period
91.71 mins
BSTAR
0.0012159
Loading maneuver chart data...
Computing Atmospheric mass density...
Loading historical data...
Loading historical data...
Loading historical data...
Loading historical data...
Loading historical data...
Loading historical data...
Loading historical data...

Documentation

Showing up to 5 results
|